Location: Barcelona
(41.3830°N, 2.1830°E)
Time: 18:49:27
(UTC+01:00)

ISS - Pass Details

Date: 24 January 2020
Orbit: 415 x 422 km, 51.6° (Epoch: 23 January)

Event Time Altitude Azimuth Distance (km) Brightness Sun altitude
Rises 19:58:07 0° 274° (W) 2,366 1.5 -22.7°
Reaches altitude 10° 20:00:35 10° 291° (WNW) 1,502 -0.1 -23.1°
Enters shadow 20:02:47 20° 331° (NNW) 1,034 -1.6 -23.5°
